Погода в Ивановке

Россия / Приморский край     43°57′54″N   132°28′46″E
темп.,
°C
ветер,
м/с
пор.,
м/с
влажн.,
%
обл.,
%
осадки,
мм/ч
давл.,
гПа
погр.,
м
11 мая, вт
вт1101:00+6зюз129589 0.0 101537
04:00+4юз119696 0.0 101513
07:00+5юз1194100 0.0 101651
10:00+8ссз2389100 0.1 1017436
13:00+11ссз237571 0.1 1018937
16:00+13св226343 0.4 10171240
19:00+12всв24710 0.0 1017220
22:00+7вюв228398 0.0 101817
12 мая, ср
ср1201:00+5ю229211 0.0 101938
04:00+5юв229323 0.0 101932
07:00+5юв2488100 0.0 1018123
10:00+12ююз61362100 0.0 10171157
13:00+14ююз71560100 0.0 10151463
16:00+12ююз81568100 0.0 10141109
19:00+9ююз51488100 1.4 10141129
22:00+9ююз6158499 2.0 1015865
13 мая, чт
чт1301:00+9ююз615899 0.0 1015644
04:00+8ююз512870 0.0 1015384
07:00+9ююз4118899 0.0 1015450
10:00+14ююз687151 0.0 1014698
13:00+17ююз6961100 0.0 1013771
16:00+17ююз5760100 0.0 1012607
19:00+15ю486949 0.0 1012371
22:00+10ююв227859 0.0 101313
14 мая, пт
пт1401:00+8ю22815 0.0 101418
04:00+7юв227975 0.0 101317
07:00+9ююв22745 0.0 101429
10:00+17ю2553100 0.0 1013531
13:00+19ююз5753100 0.0 1011907
16:00+18ююз5960100 0.0 1010779
19:00+14ююз51370100 0.0 1010508
22:00+11ю3694100 1.9 1011204
15 мая, сб
сб1501:00+13ю41386100 0.4 1009832
04:00+14ю71790100 0.4 1007731
07:00+14ююз71590100 0.0 1007597
10:00+18ю814805 0.0 1006581
13:00+21ююз7117029 0.0 1005797
16:00+16з5890100 0.1 1005418
19:00+13с2496100 3.1 1007306
22:00+12юв1176100 0.0 100911